Regional Weather Roundup
Issued by NWS Wakefield, VA

Home | Current Version | Previous Version | Text Only | Print | Product List | Glossary On
Versions: 1 2 3 4 5 6 7 8 9 10 11 12 13 14 15 16 17 18 19 20 21 22 23 24 25 26 27 28 29 30 31 32 33 34 35 36 37 38 39 40 41 42 43 44 45 46 47 48 49 50
000
ASUS41 KAKQ 281215
RWRAKQ

REGIONAL WEATHER ROUNDUP
NATIONAL WEATHER SERVICE WAKEFIELD VA
800 AM EDT THU JUL 28 2016

Note: "fair" indicates few or no clouds below 12,000 feet with no
significant weather and/or obstructions to visibility. * = Denotes
station may not report precipitation (e.g., rain,snow,etc.),
thunder or fog.

VAZ042-051-052>054-056-281300-
NORTHERN VIRGINIA

CITY           SKY/WX    TMP DP  RH WIND       PRES   REMARKS
WASH NATIONAL  PTSUNNY   84  74  71 S3        29.91S
DULLES         PTSUNNY   78  71  79 NW3       29.93R
FORT BELVOIR   FAIR      80  75  82 CALM      29.91R HAZE
QUANTICO       PTSUNNY   80  74  81 NW3       29.92R
FREDERICKSBRG* FAIR      77  77 100 CALM      29.91S
STAFFORD*      FAIR      77  73  85 CALM      29.96S
WARRENTON      FAIR      79  70  75 CALM      29.92S
CULPEPER*      FAIR      77  75  93 CALM      29.93F
MANASSAS*      SUNNY     79  75  89 CALM      29.92R
LEESBURG*      FAIR      79  73  83 CALM      29.94S
WINCHESTER     FAIR      75  72  88 SW5       29.95S
FRONT ROYAL*   FAIR      73  72  94 SW5       29.94S
LURAY*         FAIR     N/A N/A N/A CALM      29.96F
$$

VAZ048-049-060>072-079>083-281300-
CENTRAL AND SOUTH CENTRAL VIRGINIA

CITY           SKY/WX    TMP DP  RH WIND       PRES   REMARKS
RICHMOND       PTSUNNY   77  73  87 S3        29.93R
CHESTERFIELD*  FAIR      77  63  61 CALM      29.94R
PETERSBURG*    FAIR      78  78 100 CALM      29.94R
HANOVER        FAIR      77  73  87 CALM      29.94R
TAPPAHANNOCK*  FAIR      78  78  98 CALM      29.93R
QUINTON*       FAIR      75  75  99 MISG      29.92R
CHARLOTTSVILLE FAIR      77  73  87 CALM      29.93S
GORDONSVILLE*  FAIR      76  74  96 CALM      29.92F
ORANGE*          N/A     77  77 100 CALM      29.94F
LOUISA*        FAIR      77  75  94 CALM      29.92F
BUMPASS*       CLOUDY    73  73  98 CALM      29.93R
FARMVILLE*     FAIR     N/A N/A N/A S3        29.93S
CREWE*         NOT AVBL
FORT PICKETT*  FAIR      76  76  98 CALM      29.94S
CHASE CITY*    FAIR      75  73  95 CALM      29.95R
CLARKSVILLE*   FAIR      75  75 100 CALM      29.94S
SOUTH HILL*    FAIR      75  74  96 CALM      30.00R
LAWRENCEVILLE* FAIR      76  76 100 CALM      29.94R
EMPORIA*         N/A     77  73  88 CALM      29.94S
$$

VAZ088>098-281300-
SOUTHEAST VIRGINIA

CITY           SKY/WX    TMP DP  RH WIND       PRES   REMARKS
NORFOLK        FAIR      84  77  79 NW3       29.92R
VIRGINIA BEACH PTSUNNY   88  77  69 CALM      29.91R HX 100
NORFOLK NAVAL  FAIR      84  77  79 CALM      29.93S
WEST POINT*    FAIR      79  77  95 CALM      29.93R
SALUDA*        FAIR      78  77  95 CALM      29.92R
NEWPORT NEWS   FAIR      81  77  88 CALM      29.92S
LANGLEY AFB    FAIR      81  77  88 W1        29.92S
FORT EUSTIS    FAIR      82  76  81 CALM      29.90S
WILLIAMSBURG*  FAIR      79  79 100 CALM      29.93R
HR EXEC AP*    FAIR      79  77  94 CALM      29.95R
FRANKLIN*      FAIR      78  75  93 CALM      29.93S
US460-WAKEFLD  FAIR      79  74  84 CALM      29.93R
$$

VAZ020-022-025-037-045-281300-
WEST CENTRAL AND SOUTHWEST VIRGINIA

CITY           SKY/WX    TMP DP  RH WIND       PRES   REMARKS
STAUNTON*      FAIR      71  70  98 CALM      29.99F
WAYNESBORO*    FAIR      72  70  95 NE3       29.97F
HOT SPRINGS VA FAIR      68  68 100 W5        30.10F
LYNCHBURG      FAIR      75  73  93 CALM      29.96F
DANVILLE       FAIR      73  72  96 CALM      29.96R
SOUTH BOSTON*  FAIR     N/A N/A N/A CALM      29.95S
MARTINSVILLE   FAIR      71  70  98 CALM      29.99S
ROANOKE        FAIR      75  73  93 MISG      30.01R
BLACKSBURG     PTSUNNY   71  70  96 CALM      30.08R
DUBLIN*        FAIR      73  73 100 CALM      30.06S
MARION*        CLOUDY    72  71  96 SW5       30.09S
HILLSVILLE*    FAIR      70  70  99 CALM      30.07R
RICHLANDS*     FOG       67  67 100 CALM      30.08R VSB 1
WISE*          NOT AVBL
ABINGDON*      CLOUDY    73  73 100 CALM      30.06S FOG
$$

MDZ021>025-VAZ099-100-281300-
SOUTHERN MARYLAND AND THE DELMARVA PENINSULA

CITY           SKY/WX    TMP DP  RH WIND       PRES   REMARKS
PATUXENT RIVER MOSUNNY   82  77  84 SW7       29.91R
BAY BRIDGE APT PTSUNNY   84  79  84 S3        29.91R HX  96
LEONARDTOWN      N/A     79  75  89 MISG        N/A
DOVER          SUNNY     81  81 100 NE2       29.90S
GEORGETOWN     SUNNY     82  77  84 SW3       29.92S HAZE
EASTON         MOSUNNY   82  81  94 CALM      29.95R HX  95
CAMBRIDGE      MOSUNNY   79  77  94 CALM      29.91R
SALISBURY      SUNNY     81  77  88 CALM      29.92R FOG
OCEAN CITY     SUNNY     80  77  90 CALM      29.92R
WALLOPS ISLAND FAIR      83  79  88 SE3       29.92R FOG
ACCOMACK*      NOT AVBL
$$

NCZ012>017-030>032-281300-
NORTH CENTRAL AND EASTERN NORTH CAROLINA

CITY           SKY/WX    TMP DP  RH WIND       PRES   REMARKS
ROANOKE RAPIDS FAIR      73  72  94 CALM      29.93S
RALEIGH        MOSUNNY   78  73  84 CALM      29.95R
ELIZABETH CITY MOSUNNY   81  76  84 SW3       29.93R
AHOSKIE*       SUNNY     78  74  88 CALM      29.93S
EDENTON*       SUNNY     83  78  83 W6        29.94S
CURRITUCK*     SUNNY     80  77  91 SW3       29.94R
KILL DEVIL HLS PTSUNNY   82  75  79 SW5       29.93S
MANTEO           N/A     80  77  90 NW5       29.95R
CAPE HATTERAS  PTSUNNY   82  78  88 S3        29.95S
TARBORO*       FAIR      78  76  94 CALM      29.94S
GOLDSBORO      SUNNY     83  79  89 SW9       29.93R
WASHINGTON     SUNNY     80  76  88 SW6       29.94R
GREENVILLE     SUNNY     82  77  83 CALM      29.96R
NEW BERN       SUNNY     82  76  81 SW6       29.95R
WILMINGTON     SUNNY     84  76  76 W8        29.96S
$$

VAZ048-281300-
ELSEWHERE

CITY           SKY/WX    TMP DP  RH WIND       PRES   REMARKS
HARRISBURG PA  PTSUNNY   77  70  79 CALM      29.92R
BALTIMORE      CLOUDY    81  72  74 CALM      29.91R
ANNAPOLIS      SUNNY     84  78  82 CALM      29.90R HX  95
ANDREWS AFB    FAIR      81  76  85 SE2       29.91R
PHILADELPHIA   PTSUNNY   81  71  71 CALM      29.92R
GREENSBORO     PTSUNNY   77  72  84 CALM      29.96S
ROCKY MOUNT    SUNNY     80  77  90 CALM      29.94R
$$

VAZ100-281300-
MARINE

STATION/POSITION TIME  TEMP    WIND        PRES    WAVE   SWELL
                       AIR SEA DIR/SP/G            HT/PER HT/PER
                 (UTC) (F)     (DEG/KT/KT) (MB)    (FT/S) (FT/S)
BRANDYWINE LGT   1124   76     120/  3/  3   N/A
CAPE MAY NJ      1100   74 71   CALM  /  1 1012.3R
LEWES DE         1100   80 75  180/  1/  1 1012.6R
OCEAN-CITY-INLET 1100   73 69  200/  2/  3 1013.2R
WACHAPREAGUE VA  1100   79 85  100/  2/  2 1012.8R
THOMAS POINT MD  1200   83 85  250/  3/  3 1014.2R
GOOSES REEF MD   1200   83 85  250/  4/  6 1014.0R   0
COVE POINT MD    1100   81     270/  4/  6 1013.0R
SOLOMONS ISLAND  1100   83 86  250/  4/  5   N/A
BISHOPS HEAD MD  1100   84 86  180/  5/  6 1012.8R
PINEY POINT MD   1100          260/  6/  7   N/A
POTOMAC MD       1200   83 86  270/  6/  8 1011.9R   1
CAMBRIDGE MD     1100   82 88  140/  1/  2 1011.6R
LEWISETTA VA     1100   78 87  260/  5/  6 1012.2R
RAPPAHANNOCK LGT 1100          270/  4/  5 1013.4R
STINGRAY PT      1200   82 86  230/  4/  6 1013.4R   0
YORK RVR RNG VA  1100   81     300/  5/  6 1012.5R
YORKTOWN VA      1100   79 85  250/  2/  3 1012.5R
JAMESTOWN VA     1200   81 89  230/  2/  2   N/A     0
DOMINION TERM VA 1100   81     290/  4/  5 1013.1R
KIPTOPEKE VA     1100      80  160/  3/  4   N/A
CHES BAY BRIDGE  1100   81 79  280/  5/  6 1012.9R
CAPE HENRY VA    1100   81     290/  5/  6   N/A
WILLOUBY STN VA  1100   81     310/  3/  4   N/A
CAPE HENRY BUOY  1112      75                N/A     1/ 9
1ST LANDING BUOY 1200   82 81  270/  4/  4 1012.9R   1
CAPE CHARLES BUO 1126      78                N/A     1/ 9
OFFSHORE WE BUOY 1121      82                N/A     2/ 8
64NM E OF VA BCH 1150   81 81  210/  4/  4 1013.3R   2/ 6   2/ 6
DUCK PIER NC     1100   82 73  250/  8/  9 1013.0R
44100 DUCK FRF   1105      78                N/A     1/ 8
44056 DUCK FRF   1111      76                N/A     1/ 8
OREGON INLET NC  1100   81 84  250/  5/  6 1013.9R
HATTERAS NC      1100   81 83  210/  4/  5 1013.7R
DIAMOND SHLS NC  1150   84 84  210/  8/ 10 1014.4R   2/ 6   2/ 6
CAPE LOOKOUT NC  1200   84     220/  7/ 10 1013.9R
$$



USA.gov is the U.S. government's official web portal to all federal, state and local government web resources and services.